VBV101 SAWU-SAWC

Flight info

Callsign VBV101
Flight time 0h 50m
Altitude 26000
Route DEVIS DEVIS2Q
Aircraft A319/M-SDE3FGHIRWY/LB1

Departure

Time 2026-05-06 18:59
Airport Santa Cruz Airport (SAWU)

Arrival

Time 2026-05-06 19:50
Airport El Calafate - Commander Armando Tola International Airport (SAWC)
Time Latitude Longitude Altitude Speed Heading
2026-05-06 18:41 -50.02051 -68.57744 381 ft 0 kts 271°
2026-05-06 18:43 -50.02050 -68.57744 381 ft 0 kts 266°
2026-05-06 18:51 -50.02051 -68.57752 381 ft 3 kts 263°
2026-05-06 18:51 -50.02054 -68.57784 381 ft 4 kts 262°
2026-05-06 18:52 -50.02042 -68.57858 381 ft 8 kts 313°
2026-05-06 18:52 -50.01994 -68.57916 381 ft 9 kts 345°
2026-05-06 18:52 -50.01921 -68.57938 381 ft 11 kts 348°
2026-05-06 18:52 -50.01837 -68.57967 381 ft 12 kts 349°
2026-05-06 18:53 -50.01745 -68.57999 381 ft 13 kts 345°
2026-05-06 18:53 -50.01730 -68.58134 381 ft 14 kts 260°
2026-05-06 18:53 -50.01751 -68.58291 381 ft 15 kts 258°
2026-05-06 18:53 -50.01773 -68.58460 381 ft 16 kts 259°
2026-05-06 18:54 -50.01799 -68.58644 380 ft 17 kts 257°
2026-05-06 18:54 -50.01826 -68.58831 381 ft 18 kts 259°
2026-05-06 18:54 -50.01845 -68.59017 378 ft 17 kts 262°
2026-05-06 18:54 -50.01868 -68.59173 377 ft 13 kts 265°
2026-05-06 18:55 -50.01880 -68.59323 375 ft 13 kts 262°
2026-05-06 18:55 -50.01909 -68.59353 376 ft 5 kts 108°
2026-05-06 18:55 -50.01893 -68.59307 375 ft 4 kts 56°
2026-05-06 18:55 -50.01891 -68.59298 375 ft 0 kts 69°
2026-05-06 18:58 -50.01889 -68.59292 375 ft 6 kts 69°
2026-05-06 18:58 -50.01827 -68.58881 380 ft 78 kts 77°
2026-05-06 18:59 -50.01663 -68.57655 418 ft 145 kts 78°
2026-05-06 18:59 -50.01495 -68.56304 1465 ft 115 kts 79°
2026-05-06 18:59 -50.01401 -68.55230 2214 ft 102 kts 81°
2026-05-06 18:59 -50.01338 -68.54078 2705 ft 110 kts 84°
2026-05-06 19:00 -50.01302 -68.52953 3234 ft 109 kts 84°
2026-05-06 19:00 -50.01268 -68.51653 3520 ft 134 kts 84°
2026-05-06 19:00 -50.01268 -68.50085 3942 ft 158 kts 100°
2026-05-06 19:00 -50.01914 -68.48606 4497 ft 181 kts 144°
2026-05-06 19:01 -50.03109 -68.47830 5097 ft 200 kts 179°
2026-05-06 19:01 -50.04430 -68.48489 5709 ft 212 kts 225°
2026-05-06 19:01 -50.05222 -68.50410 6354 ft 221 kts 256°
2026-05-06 19:01 -50.05486 -68.52831 6818 ft 242 kts 275°
2026-05-06 19:02 -50.05144 -68.55544 6902 ft 260 kts 298°
2026-05-06 19:02 -50.04037 -68.57696 6897 ft 259 kts 326°
2026-05-06 19:02 -50.02491 -68.59193 7276 ft 268 kts 327°
2026-05-06 19:02 -50.01269 -68.61341 8338 ft 274 kts 300°
2026-05-06 19:03 -50.00817 -68.64167 9461 ft 279 kts 274°
2026-05-06 19:03 -50.01217 -68.67111 10397 ft 292 kts 249°
2026-05-06 19:03 -50.02441 -68.69730 11003 ft 316 kts 225°
2026-05-06 19:03 -50.04389 -68.71542 11495 ft 340 kts 201°
2026-05-06 19:04 -50.06752 -68.72450 12065 ft 356 kts 196°
2026-05-06 19:04 -50.09069 -68.73773 12765 ft 362 kts 209°
2026-05-06 19:04 -50.11208 -68.75809 13377 ft 369 kts 219°
2026-05-06 19:04 -50.13217 -68.78352 14156 ft 372 kts 225°
2026-05-06 19:05 -50.15095 -68.81132 14943 ft 375 kts 229°
2026-05-06 19:05 -50.16902 -68.84058 15710 ft 378 kts 231°
2026-05-06 19:05 -50.18657 -68.87048 16441 ft 381 kts 232°
2026-05-06 19:05 -50.20413 -68.90131 17269 ft 382 kts 232°
2026-05-06 19:06 -50.22176 -68.93275 18009 ft 384 kts 233°
2026-05-06 19:06 -50.23920 -68.96422 18665 ft 388 kts 233°
2026-05-06 19:06 -50.25667 -68.99590 19298 ft 392 kts 234°
2026-05-06 19:06 -50.27438 -69.02818 19949 ft 396 kts 234°
2026-05-06 19:07 -50.29243 -69.06112 20586 ft 399 kts 234°
2026-05-06 19:07 -50.31039 -69.09399 21200 ft 402 kts 234°
2026-05-06 19:07 -50.32853 -69.12723 21802 ft 406 kts 234°
2026-05-06 19:07 -50.34679 -69.16077 22391 ft 409 kts 234°
2026-05-06 19:08 -50.36529 -69.19476 22968 ft 412 kts 235°
2026-05-06 19:08 -50.38372 -69.22866 23660 ft 411 kts 235°
2026-05-06 19:08 -50.40203 -69.26238 24412 ft 409 kts 235°
2026-05-06 19:08 -50.42052 -69.29648 25062 ft 409 kts 236°
2026-05-06 19:09 -50.43886 -69.33041 25580 ft 412 kts 236°
2026-05-06 19:09 -50.45730 -69.36456 25856 ft 415 kts 236°
2026-05-06 19:09 -50.47601 -69.39926 25874 ft 416 kts 236°
2026-05-06 19:09 -50.49454 -69.43371 25877 ft 416 kts 236°
2026-05-06 19:10 -50.51331 -69.46860 25877 ft 415 kts 236°
2026-05-06 19:10 -50.53135 -69.50203 25880 ft 397 kts 236°
2026-05-06 19:10 -50.54872 -69.53422 25879 ft 379 kts 236°
2026-05-06 19:10 -50.56548 -69.56538 25876 ft 362 kts 237°
2026-05-06 19:11 -50.58116 -69.59460 25875 ft 346 kts 237°
2026-05-06 19:11 -50.59633 -69.62295 25877 ft 331 kts 237°
2026-05-06 19:11 -50.61086 -69.65012 25877 ft 316 kts 238°
2026-05-06 19:11 -50.62451 -69.67568 25879 ft 302 kts 239°
2026-05-06 19:12 -50.63781 -69.70073 25883 ft 298 kts 239°
2026-05-06 19:12 -50.65117 -69.72602 25879 ft 298 kts 239°
2026-05-06 19:12 -50.66437 -69.75099 25885 ft 298 kts 239°
2026-05-06 19:12 -50.67754 -69.77587 25888 ft 298 kts 239°
2026-05-06 19:13 -50.69085 -69.80100 25893 ft 299 kts 239°
2026-05-06 19:13 -50.70422 -69.82624 25883 ft 299 kts 239°
2026-05-06 19:13 -50.71748 -69.85127 25891 ft 300 kts 239°
2026-05-06 19:13 -50.73077 -69.87641 25893 ft 300 kts 239°
2026-05-06 19:14 -50.74408 -69.90155 25891 ft 299 kts 239°
2026-05-06 19:14 -50.75742 -69.92676 25896 ft 298 kts 239°
2026-05-06 19:14 -50.77050 -69.95154 25868 ft 295 kts 239°
2026-05-06 19:14 -50.78371 -69.97649 25566 ft 293 kts 239°
2026-05-06 19:15 -50.79657 -70.00092 25129 ft 294 kts 239°
2026-05-06 19:15 -50.80971 -70.02595 24735 ft 293 kts 239°
2026-05-06 19:15 -50.82263 -70.05053 24360 ft 292 kts 239°
2026-05-06 19:15 -50.83550 -70.07502 24023 ft 290 kts 239°
2026-05-06 19:16 -50.84833 -70.09943 23796 ft 285 kts 238°
2026-05-06 19:16 -50.86097 -70.12357 23867 ft 288 kts 238°
2026-05-06 19:16 -50.87379 -70.14803 23896 ft 289 kts 238°
2026-05-06 19:16 -50.88658 -70.17251 23973 ft 294 kts 239°
2026-05-06 19:17 -50.89964 -70.19754 24544 ft 298 kts 238°
2026-05-06 19:17 -50.91281 -70.22269 25251 ft 297 kts 239°
2026-05-06 19:17 -50.92589 -70.24774 25747 ft 299 kts 239°
2026-05-06 19:17 -50.93912 -70.27315 25912 ft 301 kts 239°
2026-05-06 19:18 -50.95234 -70.29852 25913 ft 300 kts 239°
2026-05-06 19:18 -50.96559 -70.32397 25911 ft 301 kts 239°
2026-05-06 19:18 -50.97886 -70.34953 25663 ft 300 kts 239°
2026-05-06 19:18 -50.99213 -70.37506 25399 ft 298 kts 239°
2026-05-06 19:19 -51.00525 -70.40035 25136 ft 296 kts 239°
2026-05-06 19:19 -51.01823 -70.42554 24878 ft 294 kts 242°
2026-05-06 19:19 -51.02801 -70.45293 24605 ft 280 kts 259°
2026-05-06 19:19 -51.03229 -70.48182 24339 ft 268 kts 274°
2026-05-06 19:20 -51.03167 -70.51086 24069 ft 257 kts 287°
2026-05-06 19:20 -51.02676 -70.53745 23805 ft 249 kts 300°
2026-05-06 19:20 -51.01822 -70.56081 23549 ft 243 kts 311°
2026-05-06 19:20 -51.00690 -70.58159 23299 ft 264 kts 315°
2026-05-06 19:21 -50.99377 -70.60451 23041 ft 297 kts 314°
2026-05-06 19:21 -50.97924 -70.62980 22777 ft 323 kts 314°
2026-05-06 19:21 -50.96385 -70.65669 22504 ft 329 kts 315°
2026-05-06 19:21 -50.94863 -70.68328 22222 ft 329 kts 315°
2026-05-06 19:22 -50.93325 -70.71011 21927 ft 329 kts 315°
2026-05-06 19:22 -50.91792 -70.73673 21557 ft 327 kts 315°
2026-05-06 19:22 -50.90265 -70.76325 21121 ft 326 kts 315°
2026-05-06 19:22 -50.88765 -70.78928 20646 ft 324 kts 315°
2026-05-06 19:23 -50.87256 -70.81540 20166 ft 322 kts 315°
2026-05-06 19:23 -50.85737 -70.84167 19674 ft 320 kts 315°
2026-05-06 19:23 -50.84264 -70.86713 19205 ft 319 kts 315°
2026-05-06 19:23 -50.82771 -70.89288 18731 ft 316 kts 315°
2026-05-06 19:24 -50.81282 -70.91854 18244 ft 315 kts 315°
2026-05-06 19:24 -50.79812 -70.94385 17743 ft 315 kts 315°
2026-05-06 19:24 -50.78350 -70.96898 17230 ft 314 kts 315°
2026-05-06 19:24 -50.76860 -70.99456 16724 ft 314 kts 315°
2026-05-06 19:25 -50.75390 -71.01978 16221 ft 314 kts 315°
2026-05-06 19:25 -50.73929 -71.04482 15723 ft 313 kts 315°
2026-05-06 19:25 -50.72455 -71.07009 15296 ft 311 kts 315°
2026-05-06 19:25 -50.71000 -71.09499 14859 ft 309 kts 315°
2026-05-06 19:26 -50.69556 -71.11967 14335 ft 311 kts 315°
2026-05-06 19:26 -50.68100 -71.14451 13906 ft 309 kts 315°
2026-05-06 19:26 -50.66644 -71.16936 13472 ft 307 kts 315°
2026-05-06 19:26 -50.65207 -71.19384 13035 ft 306 kts 314°
2026-05-06 19:27 -50.63780 -71.21812 12594 ft 304 kts 314°
2026-05-06 19:27 -50.62345 -71.24250 12095 ft 304 kts 314°
2026-05-06 19:27 -50.60924 -71.26666 11629 ft 303 kts 314°
2026-05-06 19:27 -50.59500 -71.29085 11221 ft 299 kts 314°
2026-05-06 19:28 -50.58118 -71.31430 10937 ft 292 kts 314°
2026-05-06 19:28 -50.56739 -71.33766 10645 ft 285 kts 314°
2026-05-06 19:28 -50.55411 -71.36014 10349 ft 280 kts 314°
2026-05-06 19:28 -50.54116 -71.38206 10089 ft 274 kts 314°
2026-05-06 19:29 -50.52821 -71.40394 9950 ft 267 kts 314°
2026-05-06 19:29 -50.51581 -71.42488 9653 ft 263 kts 314°
2026-05-06 19:29 -50.50334 -71.44590 9309 ft 262 kts 313°
2026-05-06 19:29 -50.49099 -71.46672 8951 ft 261 kts 313°
2026-05-06 19:30 -50.47868 -71.48742 8602 ft 259 kts 313°
2026-05-06 19:30 -50.46651 -71.50790 8277 ft 258 kts 312°
2026-05-06 19:30 -50.45428 -71.52845 7940 ft 256 kts 312°
2026-05-06 19:30 -50.44214 -71.54884 7647 ft 253 kts 311°
2026-05-06 19:31 -50.43044 -71.56850 7554 ft 242 kts 311°
2026-05-06 19:31 -50.41922 -71.58735 7462 ft 232 kts 312°
2026-05-06 19:31 -50.39789 -71.62312 7087 ft 222 kts 311°
2026-05-06 19:32 -50.38749 -71.64052 6826 ft 221 kts 311°
2026-05-06 19:32 -50.37698 -71.65809 6565 ft 219 kts 312°
2026-05-06 19:32 -50.36658 -71.67526 6304 ft 219 kts 316°
2026-05-06 19:32 -50.35331 -71.68665 6010 ft 220 kts 349°
2026-05-06 19:33 -50.33845 -71.68515 5745 ft 219 kts 21°
2026-05-06 19:33 -50.32514 -71.67409 5503 ft 216 kts 32°
2026-05-06 19:33 -50.31229 -71.66168 5263 ft 215 kts 32°
2026-05-06 19:33 -50.29955 -71.64949 5018 ft 214 kts 32°
2026-05-06 19:34 -50.28594 -71.64085 4741 ft 215 kts
2026-05-06 19:34 -50.27153 -71.64532 4482 ft 211 kts 327°
2026-05-06 19:34 -50.26188 -71.66135 4257 ft 206 kts 292°
2026-05-06 19:34 -50.25845 -71.68239 4069 ft 195 kts 273°
2026-05-06 19:35 -50.25861 -71.70323 3784 ft 190 kts 262°
2026-05-06 19:35 -50.26018 -71.72302 3565 ft 181 kts 258°
2026-05-06 19:35 -50.26190 -71.74203 3391 ft 167 kts 259°
2026-05-06 19:35 -50.26318 -71.75875 3343 ft 145 kts 261°
2026-05-06 19:36 -50.26420 -71.77412 3345 ft 142 kts 262°
2026-05-06 19:36 -50.26513 -71.78953 3352 ft 142 kts 262°
2026-05-06 19:36 -50.26602 -71.80484 3358 ft 141 kts 263°
2026-05-06 19:36 -50.26680 -71.82019 3329 ft 142 kts 262°
2026-05-06 19:37 -50.26761 -71.83545 3179 ft 142 kts 262°
2026-05-06 19:37 -50.26844 -71.85084 2982 ft 141 kts 262°
2026-05-06 19:37 -50.26928 -71.86589 2797 ft 139 kts 262°
2026-05-06 19:37 -50.27012 -71.88082 2616 ft 138 kts 262°
2026-05-06 19:38 -50.27097 -71.89568 2423 ft 136 kts 263°
2026-05-06 19:38 -50.27182 -71.91026 2242 ft 134 kts 263°
2026-05-06 19:38 -50.27265 -71.92461 2198 ft 133 kts 263°
2026-05-06 19:38 -50.27350 -71.93914 2198 ft 133 kts 263°
2026-05-06 19:39 -50.27433 -71.95340 2198 ft 133 kts 263°
2026-05-06 19:39 -50.27519 -71.96783 2197 ft 133 kts 264°
2026-05-06 19:39 -50.27607 -71.98236 2200 ft 133 kts 263°
2026-05-06 19:39 -50.27651 -71.99687 2194 ft 134 kts 278°
2026-05-06 19:40 -50.27110 -72.00853 2177 ft 142 kts 329°
2026-05-06 19:40 -50.26126 -72.00907 2176 ft 151 kts 21°
2026-05-06 19:40 -50.25364 -71.99785 2185 ft 155 kts 62°
2026-05-06 19:40 -50.24966 -71.98222 2198 ft 155 kts 73°
2026-05-06 19:41 -50.24646 -71.96606 2206 ft 157 kts 74°
2026-05-06 19:41 -50.24329 -71.94951 2544 ft 161 kts 75°
2026-05-06 19:41 -50.24005 -71.93301 2862 ft 155 kts 75°
2026-05-06 19:41 -50.23687 -71.91724 2897 ft 153 kts 75°
2026-05-06 19:42 -50.23369 -71.90147 2906 ft 152 kts 75°
2026-05-06 19:42 -50.23084 -71.88564 2915 ft 151 kts 77°
2026-05-06 19:42 -50.22815 -71.86979 2911 ft 151 kts 77°
2026-05-06 19:42 -50.22537 -71.85383 2910 ft 151 kts 76°
2026-05-06 19:43 -50.22264 -71.83815 2910 ft 151 kts 76°
2026-05-06 19:43 -50.21980 -71.82185 2901 ft 165 kts 77°
2026-05-06 19:43 -50.21681 -71.80315 2944 ft 178 kts 84°
2026-05-06 19:43 -50.21817 -71.78552 2883 ft 157 kts 123°
2026-05-06 19:44 -50.22515 -71.77409 2878 ft 142 kts 155°
2026-05-06 19:44 -50.23441 -71.77290 2888 ft 135 kts 204°
2026-05-06 19:44 -50.24278 -71.77945 2917 ft 135 kts 206°
2026-05-06 19:44 -50.25154 -71.78516 2913 ft 135 kts 203°
2026-05-06 19:45 -50.26016 -71.79099 2903 ft 135 kts 218°
2026-05-06 19:45 -50.26481 -71.80330 2915 ft 136 kts 255°
2026-05-06 19:45 -50.26633 -71.81791 2907 ft 137 kts 261°
2026-05-06 19:45 -50.26734 -71.83289 2903 ft 138 kts 262°
2026-05-06 19:46 -50.26821 -71.84768 2903 ft 138 kts 262°
2026-05-06 19:46 -50.26907 -71.86262 2823 ft 139 kts 263°
2026-05-06 19:46 -50.26992 -71.87772 2640 ft 137 kts 263°
2026-05-06 19:46 -50.27076 -71.89222 2455 ft 135 kts 263°
2026-05-06 19:47 -50.27160 -71.90673 2278 ft 133 kts 263°
2026-05-06 19:47 -50.27243 -71.92113 2124 ft 132 kts 263°
2026-05-06 19:47 -50.27324 -71.93501 1942 ft 123 kts 263°
2026-05-06 19:47 -50.27399 -71.94785 1758 ft 117 kts 263°
2026-05-06 19:48 -50.27474 -71.96047 1604 ft 116 kts 263°
2026-05-06 19:48 -50.27548 -71.97308 1451 ft 116 kts 263°
2026-05-06 19:48 -50.27623 -71.98566 1297 ft 116 kts 264°
2026-05-06 19:48 -50.27697 -71.99817 1141 ft 115 kts 264°
2026-05-06 19:49 -50.27771 -72.01054 987 ft 114 kts 264°
2026-05-06 19:49 -50.27845 -72.02294 828 ft 113 kts 264°
2026-05-06 19:49 -50.27917 -72.03504 673 ft 112 kts 265°
2026-05-06 19:49 -50.27978 -72.04533 649 ft 60 kts 264°
2026-05-06 19:50 -50.27992 -72.04761 649 ft 0 kts 264°
2026-05-06 19:50 -50.27996 -72.04833 649 ft 11 kts 265°
2026-05-06 19:50 -50.28003 -72.04959 649 ft 12 kts 265°
2026-05-06 19:50 -50.28011 -72.05094 649 ft 12 kts 264°
2026-05-06 19:51 -50.28020 -72.05237 649 ft 13 kts 264°
2026-05-06 19:51 -50.28035 -72.05386 649 ft 13 kts 241°
2026-05-06 19:51 -50.28122 -72.05412 651 ft 13 kts 175°
2026-05-06 19:51 -50.28211 -72.05402 653 ft 12 kts 178°
2026-05-06 19:52 -50.28289 -72.05445 654 ft 11 kts 200°
2026-05-06 19:52 -50.28346 -72.05458 655 ft 3 kts 176°
2026-05-06 19:52 -50.28348 -72.05458 655 ft 0 kts 176°